Location: Rounton
(54.4000°N, 1.3500°W)
Time: 17:25:58
(UTC+00:00)

Tiros 1 - Pass Details

Date: 09 December 2021
Orbit: 629 x 664 km, 48.4° (Epoch: 19 January)

Event Time Altitude Azimuth Distance (km) Brightness Sun altitude
Rises 17:31:09 0° 229° (SW) 2,913 11.8 -14.7°
Reaches altitude 10° 17:33:41 10° 217° (SW) 2,010 10.5 -15.0°
Maximum altitude 17:37:38 28° 159° (SSE) 1,190 8.5 -15.6°
Enters shadow 17:39:58 19° 115° (ESE) 1,534 8.7 -15.9°
